Milwaukee, WI

3:14 AM CDT on May 26, 2018 (GMT -0500)
Gen Mitchell International

Weather History for KMKE - January, 2014

Change the Weather History Date:

Wednesday, January 1, 2014

  Actual Average Record
Temperature  
Mean Temperature 12 °F 23 °F  
Max Temperature 19 °F 29 °F 56 °F (1897)
Min Temperature 5 °F 16 °F -11 °F (1968)
Degree Days  
Heating Degree Days 53 42  
Month to date heating degree days 53 42  
Since 1 July heating degree days 2786 2602  
Cooling Degree Days 0 0  
Month to date cooling degree days 0 0  
Year to date cooling degree days 0 0  
Moisture  
Dew Point 7 °F    
Average Humidity 75    
Maximum Humidity 88    
Minimum Humidity 62    
Precipitation  
Precipitation 0.13 in 0.06 in 1.90 in (1876)
Month to date precipitation 0.13 0.06  
Year to date precipitation 0.13 0.06  
Snow  
Snow 4.90 in 0.40 in 10.30 in (1948)
Month to date snowfall 4.9 0.4  
Since 1 July snowfall 26.2 13.7  
Snow Depth 8.00 in    
Sea Level Pressure  
Sea Level Pressure 30.32 in    
Wind  
Wind Speed 13 mph (NNE)    
Max Wind Speed 21 mph    
Max Gust Speed 23 mph    
Visibility 5 miles    
Events Snow    
T = Trace of Precipitation, MM = Missing Value Source: NWS Daily Summary

Daily Weather History Graph

Daily Weather History Graph

Search for Another Location

Airport or City:

Astronomy

Jan. 01, 2014 Rise Set
Actual Time 7:22 AM CST 4:27 PM CST
Civil Twilight 6:50 AM CST 5:00 PM CST
Nautical Twilight 6:14 AM CST 5:35 PM CST
Astronomical Twilight 5:40 AM CST 6:10 PM CST
Moon 7:11 AM CST (1/1) 5:14 PM CST (1/1)
Length of Visible Light 10h 09m
Length of Day
9h 05m
New Moon, 0% of the Moon is Illuminated
Jan 1
New Moon
Jan 7
First Quarter
Jan 15
Full
Jan 23
Last Quarter
Jan 30
New

Hourly Weather History & Observations

Time (CST) Temp. Windchill Dew Point Humidity Pressure Visibility Wind Dir Wind Speed Gust Speed Precip Events Conditions
12:52 AM 7.0 °F -6.6 °F -2.9 °F 64% 30.38 in 10.0 mi North 9.2 mph - N/A   Overcast
1:52 AM 5.0 °F -10.0 °F -4.0 °F 66% 30.36 in 10.0 mi NNW 10.4 mph - N/A   Overcast
2:14 AM 5.0 °F -10.0 °F -4.0 °F 66% 30.31 in 10.0 mi NNW 10.4 mph - N/A   Overcast
2:52 AM 5.0 °F -6.9 °F -2.9 °F 70% 30.36 in 9.0 mi NNW 6.9 mph - 0.00 in Snow Light Snow
2:59 AM 5.0 °F -8.1 °F -2.9 °F 70% 30.30 in 5.0 mi NNW 8.1 mph - 0.00 in Snow Light Snow
3:19 AM 5.0 °F -10.0 °F -2.0 °F 73% 30.31 in 1.8 mi NNW 10.4 mph - 0.00 in Snow Light Snow
3:40 AM 5.0 °F -10.0 °F -0.9 °F 76% 30.31 in 1.8 mi NNW 10.4 mph - 0.00 in Snow Light Snow
3:52 AM 5.0 °F -9.1 °F -0.9 °F 76% 30.37 in 2.0 mi NNW 9.2 mph - 0.00 in Snow Light Snow
4:11 AM 5.0 °F -9.1 °F -0.9 °F 76% 30.30 in 3.0 mi NNW 9.2 mph - 0.00 in Snow Light Snow
4:49 AM 5.0 °F -11.6 °F -0.4 °F 78% 30.30 in 2.5 mi NNW 12.7 mph - 0.00 in Snow Light Snow
4:52 AM 5.0 °F -10.0 °F -0.0 °F 80% 30.36 in 2.5 mi NNW 10.4 mph - 0.00 in Snow Light Snow
5:49 AM 6.8 °F -5.9 °F 1.4 °F 79% 30.31 in 1.5 mi NNW 8.1 mph - 0.01 in Snow Light Snow
5:52 AM 7.0 °F -4.5 °F 3.0 °F 84% 30.36 in 1.5 mi NW 6.9 mph - 0.01 in Snow Light Snow
6:24 AM 7.0 °F -8.3 °F 3.0 °F 84% 30.30 in 0.8 mi NNW 11.5 mph - 0.01 in Snow Light Snow
6:52 AM 7.0 °F -7.5 °F 3.9 °F 87% 30.35 in 0.8 mi NNW 10.4 mph - 0.02 in Snow Light Snow
7:45 AM 8.1 °F -6.2 °F 5.0 °F 87% 30.30 in 1.0 mi NNW 10.4 mph - 0.02 in Snow Light Snow
7:52 AM 9.0 °F -5.1 °F 5.0 °F 84% 30.36 in 1.2 mi NNW 10.4 mph - 0.02 in Snow Light Snow
7:57 AM - - - N/A% - - NNW 11.5 mph - N/A   Unknown
8:06 AM 9.0 °F -5.1 °F 5.0 °F 84% 30.32 in 0.5 mi NNW 10.4 mph - 0.01 in Snow Snow
8:10 AM 9.0 °F -4.2 °F 6.1 °F 88% 30.32 in 0.5 mi NNW 9.2 mph - 0.02 in Snow Snow
8:22 AM 9.0 °F -0.9 °F 6.1 °F 88% 30.33 in 0.5 mi NNW 5.8 mph - 0.03 in Snow Snow
8:52 AM 12.0 °F 2.7 °F 9.0 °F 88% 30.38 in 0.5 mi North 5.8 mph - 0.06 in Snow Snow
9:03 AM 12.9 °F 3.8 °F 10.0 °F 88% 30.32 in 0.8 mi North 5.8 mph - 0.00 in Snow Light Snow
9:24 AM 18.0 °F 3.6 °F 12.9 °F 81% 30.32 in 0.8 mi ENE 15.0 mph 20.7 mph 0.01 in Snow Light Snow
9:31 AM 18.0 °F 3.6 °F 14.0 °F 84% 30.32 in 1.0 mi East 15.0 mph - 0.01 in Snow Light Snow
9:52 AM 18.0 °F 2.6 °F 12.9 °F 81% 30.37 in 1.0 mi East 17.3 mph - 0.01 in Snow Light Snow
10:09 AM 18.0 °F 2.2 °F 12.0 °F 78% 30.33 in 2.0 mi East 18.4 mph - 0.00 in Snow Light Snow
10:23 AM 18.0 °F 2.6 °F 10.9 °F 74% 30.33 in 5.0 mi East 17.3 mph - 0.00 in Snow Light Snow
10:52 AM 18.0 °F 3.1 °F 12.0 °F 78% 30.38 in 5.0 mi East 16.1 mph - 0.00 in Snow Light Snow
11:52 AM 18.0 °F 2.2 °F 10.9 °F 74% 30.35 in 2.0 mi ENE 18.4 mph - 0.00 in Snow Light Snow
12:06 PM 18.0 °F 3.1 °F 12.0 °F 78% 30.29 in 1.2 mi ENE 16.1 mph - 0.01 in Snow Light Snow
12:52 PM 18.0 °F 3.1 °F 12.0 °F 78% 30.33 in 1.0 mi East 16.1 mph - 0.01 in Snow Light Snow
1:17 PM 18.0 °F 3.1 °F 12.0 °F 78% 30.28 in 1.8 mi ENE 16.1 mph - 0.00 in Snow Light Snow
1:28 PM 18.0 °F 4.2 °F 10.9 °F 74% 30.28 in 1.8 mi ENE 13.8 mph - 0.00 in Snow Light Snow
1:40 PM 18.0 °F 3.6 °F 12.0 °F 78% 30.28 in 2.0 mi ENE 15.0 mph - 0.00 in Snow Light Snow
1:52 PM 18.0 °F 2.6 °F 10.0 °F 71% 30.32 in 7.0 mi ENE 17.3 mph - 0.00 in Snow Light Snow
2:52 PM 18.0 °F 5.4 °F 10.0 °F 71% 30.32 in 9.0 mi ENE 11.5 mph - 0.00 in Snow Light Snow
3:52 PM 18.0 °F 2.6 °F 10.0 °F 71% 30.32 in 9.0 mi ENE 17.3 mph - 0.00 in Snow Light Snow
4:08 PM 19.0 °F 4.5 °F 10.0 °F 68% 30.27 in 9.0 mi ENE 16.1 mph - 0.00 in   Overcast
4:34 PM 19.0 °F 4.5 °F 10.0 °F 68% 30.27 in 10.0 mi ENE 16.1 mph - 0.00 in   Overcast
4:48 PM 19.4 °F 5.0 °F 10.4 °F 68% 30.27 in 10.0 mi ENE 16.1 mph - 0.00 in   Overcast
4:52 PM 19.0 °F 4.0 °F 10.9 °F 71% 30.32 in 10.0 mi ENE 17.3 mph - 0.00 in   Overcast
5:52 PM 19.0 °F 4.5 °F 9.0 °F 65% 30.32 in 10.0 mi NE 16.1 mph - N/A   Overcast
6:04 PM 16.0 °F 2.9 °F 8.1 °F 71% 30.28 in 10.0 mi North 11.5 mph - N/A   Overcast
6:27 PM 14.0 °F 0.5 °F 9.0 °F 80% 30.27 in 10.0 mi North 11.5 mph - N/A   Mostly Cloudy
6:52 PM 16.0 °F 3.6 °F 10.9 °F 81% 30.32 in 10.0 mi NE 10.4 mph 19.6 mph N/A   Mostly Cloudy
7:52 PM 14.0 °F 0.5 °F 10.0 °F 84% 30.32 in 10.0 mi North 11.5 mph - N/A   Mostly Cloudy
8:52 PM 14.0 °F 1.2 °F 9.0 °F 80% 30.31 in 10.0 mi North 10.4 mph - N/A   Mostly Cloudy
9:52 PM 16.0 °F 0.6 °F 9.0 °F 74% 30.30 in 10.0 mi ENE 16.1 mph - N/A   Mostly Cloudy
10:52 PM 19.0 °F 5.0 °F 9.0 °F 65% 30.28 in 10.0 mi ENE 15.0 mph - N/A   Mostly Cloudy
11:52 PM 19.0 °F 7.5 °F 10.9 °F 71% 30.26 in 9.0 mi ENE 10.4 mph - 0.00 in Snow Light Snow